| Date | Temp | Humidity | Rainfall | Dew Point | Wind Direction | Wind Speed | Wind Pressure | Condition | Visibility |
|---|---|---|---|---|---|---|---|---|---|
| 2025-04-30 19:02:52 | 29 | 76 | 24 | 360 | 5.7 | 1008 | Partly Cloudy (Night) | 10KM | |
| 2025-04-30 18:03:37 | 29 | 71 | 23 | 300 | 7.6 | 1008 | Partly Cloudy (Day) | 10KM | |
| 2025-04-30 17:00:06 | 29 | 67 | 0.00 | 23 | 270 | 13.3 | 1007 | Cloudy | 10 KM |
| 2025-04-30 15:59:03 | 30 | 65 | 0.00 | 23 | 280 | 15.2 | 1007 | Cloudy | 20 KM |
| 2025-04-30 15:02:33 | 31 | 60 | 0.00 | 22 | 300 | 13.3 | 1007 | Cloudy | 20 KM |
| 2025-04-30 14:01:12 | 31 | 62 | 0.00 | 23 | 290 | 13.3 | 1008 | Cloudy | 20 km |
| 2025-04-30 12:57:11 | 30 | 70 | 0.0 | 24 | 330 | 13.3 | 1009 | Partly Cloudy (Day) | 20 km |
| 2025-04-30 11:57:51 | 30 | 67 | 0.0 | 24 | 350 | 9.5 | 1009 | Partly Cloudy (Day) | 20 KM |
| 2025-04-30 10:59:07 | 29 | 75 | 0.0 | 23 | 190 | 3.8 | 1009 | Partly Cloudy (Day) | 20 KM |
| 2025-04-30 10:04:55 | 27 | 78 | 23 | 140 | 3.8 | 1009 | Partly Cloudy (Day) | 20 KM | |
| 2025-04-30 09:00:13 | 26 | 89 | 24 | 160 | 3.8 | 1010 | Partly Cloudy (Day) | 20 KM | |
| 2025-04-30 07:57:46 | 24 | 95 | 23 | 160 | 5.7 | 1010 | Partly Cloudy (Day) | 15 km | |
| 2025-04-30 06:58:45 | 24 | 98 | 24 | 160 | 5.7 | 1010 | Partly Cloudy (Day) | 10 km | |
| 2025-04-30 05:57:19 | 24 | 98 | 23 | 170 | 5.7 | 1010 | Partly Cloudy (Day) | 10 km | |
| 2025-04-30 05:51:43 | 24 | 99 | 23 | 200 | 5.7 | 1010 | Partly Cloudy (Night) | 10 km | |
| 2025-04-30 03:56:46 | 23 | 99 | 23 | 200 | 7.6 | 1010 | Rain | 10 km | |
| 2025-04-30 02:59:25 | 24 | 99 | 23 | 160 | 5.7 | 1010 | Rain | 06 km | |
| 2025-04-30 02:10:42 | 24 | 99 | 0.00 | 23 | 230 | 7.6 | 1011 | Rain | 03KM |
| 2025-04-30 02:10:41 | 24 | 99 | 0.00 | 23 | 230 | 7.6 | 1011 | Rain | 03KM |
| 2025-04-30 01:00:00 | 24 | 96 | 0.00 | 23 | 030 | 3.8 | 1011 | Rain | 10KM |
| 2025-04-30 00:03:06 | 24 | 95 | 0.00 | 23 | 050 | 9.5 | 1011 | Rain | 10KM |
| 2025-04-29 23:01:09 | 25 | 96 | 0.00 | 24 | 060 | 7.6 | 1011 | Night Shower | 10KM |
| 2025-04-29 22:02:12 | 25 | 87 | 0.00 | 23 | 090 | 3.8 | 1011 | Night Shower | 10KM |
| 2025-04-29 20:59:29 | 27 | 88 | 0.00 | 24 | 160 | 9.5 | 1010 | Partly Cloudy (Night) | 10KM |
| 2025-04-29 19:58:11 | 27 | 88 | 0.00 | 25 | 170 | 7.6 | 1009 | Night Shower | 10KM |